FW8051 Weather Reports


time (UTC)temp
C
wind
direction
speed
KPH
gust
KPH
rain 1hr
cm
rain 24hr
cm
rain mn
cm
humidity
%
barometer
mb
20260507124547 17 136 12.9 17.7 0.00 0.00 0.00 78 1014.5
20260507123037 17 132 12.9 19.3 0.00 0.00 0.00 78 1014.5
20260507121543 17 119 12.9 16.1 0.00 0.00 0.00 78 1014.6
20260507120045 17 132 9.7 12.9 0.00 0.00 0.00 78 1014.5
20260507114543 17 132 8.0 12.9 0.00 0.03 0.00 78 1014.3
20260507113042 17 150 8.0 12.9 0.00 0.03 0.00 79 1014.5
20260507111537 17 148 9.7 16.1 0.00 0.03 0.00 81 1014.6
20260507110036 17 130 11.3 17.7 0.00 0.03 0.00 81 1014.6
20260507104543 17 126 14.5 20.9 0.00 0.03 0.00 81 1014.7
20260507103043 17 124 17.7 20.9 0.00 0.03 0.00 81 1014.7
20260507101540 17 134 16.1 22.5 0.00 0.03 0.00 80 1014.7
20260507100041 17 149 16.1 24.1 0.00 0.03 0.00 80 1014.8
20260507094538 17 142 20.9 27.4 0.00 0.03 0.00 79 1014.5
20260507093049 17 140 19.3 25.7 0.00 0.03 0.00 79 1014.5
20260507091549 17 135 19.3 22.5 0.00 0.03 0.00 78 1014.4
20260507090040 17 121 16.1 20.9 0.00 0.03 0.00 75 1014.1
20260507084539 17 175 8.0 14.5 0.00 0.03 0.00 74 1013.9
20260507083036 18 165 8.0 14.5 0.00 0.03 0.00 74 1013.8
20260507081544 17 100 3.2 6.4 0.00 0.03 0.00 70 1013.9
20260507080044 17 98 4.8 9.7 0.00 0.03 0.00 69 1014.0
20260507074557 17 102 4.8 8.0 0.00 0.03 0.00 68 1014.2
20260507073036 17 148 3.2 6.4 0.00 0.03 0.00 65 1014.4
20260507071543 17 76 3.2 11.3 0.00 0.03 0.00 64 1014.3
20260507070043 17 85 4.8 9.7 0.00 0.03 0.00 65 1014.3
20260507064540 17 109 11.3 16.1 0.00 0.03 0.00 65 1013.9
20260507063039 18 245 1.6 11.3 0.00 0.03 0.00 62 1013.8
20260507061538 17 236 1.6 11.3 0.00 0.03 0.00 65 1013.7
20260507060039 17 257 6.4 14.5 0.00 0.03 0.00 68 1013.7
20260507054542 16 213 0.0 6.4 0.00 0.03 0.00 70 1013.5
20260507053043 16 261 3.2 14.5 0.00 0.03 0.00 72 1013.2
20260507051542 16 286 4.8 20.9 0.00 0.03 0.00 71 1013.0
20260507050039 15 315 12.9 22.5 0.00 0.03 0.00 77 1012.7
20260507044544 13 199 6.4 14.5 0.00 0.03 0.00 79 1012.5
20260507043036 12 259 12.9 17.7 0.00 0.03 0.00 78 1012.5
20260507041540 13 289 6.4 11.3 0.00 0.03 0.00 78 1012.4
20260507040045 12 269 8.0 11.3 0.00 0.03 0.00 78 1012.6
20260507034542 13 225 1.6 14.5 0.00 0.03 0.00 77 1012.5
20260507033042 13 275 6.4 11.3 0.00 0.03 0.00 76 1012.4
20260507031546 13 266 4.8 17.7 0.00 0.03 0.00 75 1012.5
20260507030047 13 273 4.8 16.1 0.00 0.03 0.00 74 1012.7
20260507024544 15 215 8.0 16.1 0.00 0.03 0.00 69 1012.6
20260507023040 15 238 9.7 16.1 0.00 0.03 0.00 66 1012.5
20260507021539 16 290 9.7 19.3 0.00 0.03 0.00 66 1012.5
20260507020039 16 247 8.0 19.3 0.00 0.03 0.00 62 1012.4
20260507014547 15 304 8.0 22.5 0.00 0.08 0.00 67 1012.2
20260507013036 16 312 9.7 20.9 0.00 0.08 0.00 59 1012.1
20260507011535 15 279 4.8 17.7 0.00 0.08 0.00 68 1012.1
20260507010044 15 240 14.5 22.5 0.00 0.08 0.00 69 1012.1
20260507004540 16 275 3.2 22.5 0.00 0.28 0.00 61 1012.3
20260507003048 16 232 8.0 20.9 0.00 0.28 0.00 63 1012.3
20260507001544 16 242 6.4 14.5 0.00 0.28 0.00 60 1012.1
20260507000043 15 277 9.7 19.3 0.00 0.28 0.00 66 1012.1
20260506234543 15 259 11.3 19.3 0.00 0.28 0.00 64 1012.4
20260506233042 15 250 11.3 19.3 0.00 0.28 0.00 65 1012.5
20260506231543 15 259 12.9 19.3 0.00 0.28 0.00 64 1012.4
20260506230036 16 231 9.7 22.5 0.00 0.28 0.00 61 1012.3
20260506224543 17 9 11.3 22.5 0.00 0.33 0.00 55 1012.3
20260506223040 15 259 12.9 20.9 0.00 0.33 0.00 69 1012.4
20260506221539 16 294 8.0 17.7 0.00 0.33 0.00 65 1012.4
20260506220041 17 301 6.4 32.2 0.00 0.33 0.00 55 1012.3
20260506214538 15 244 11.3 17.7 0.00 0.36 0.33 61 1012.2
20260506213036 15 245 6.4 12.9 0.00 0.36 0.33 67 1012.1
20260506211544 15 275 8.0 16.1 0.00 0.36 0.33 69 1012.2
20260506210041 13 266 6.4 14.5 0.00 0.36 0.33 71 1012.2
20260506204544 14 286 4.8 12.9 0.00 0.56 0.33 71 1012.2
20260506203037 13 259 6.4 11.3 0.00 0.56 0.33 71 1012.4
20260506201536 14 258 3.2 11.3 0.00 0.56 0.33 70 1012.3
20260506200043 14 268 8.0 11.3 0.00 0.56 0.33 69 1012.1
20260506194540 15 274 6.4 12.9 0.00 0.79 0.33 67 1011.8
20260506193039 15 263 3.2 9.7 0.00 0.79 0.33 67 1011.6
20260506191538 15 256 4.8 14.5 0.00 0.79 0.33 69 1011.4
20260506190037 16 236 6.4 11.3 0.00 0.79 0.33 62 1011.2
20260506184536 16 227 6.4 12.9 0.00 0.79 0.33 68 1011.2
20260506183042 16 206 4.8 11.3 0.00 0.79 0.33 67 1011.2
20260506181542 17 249 4.8 9.7 0.00 0.79 0.33 68 1011.0
20260506180055 18 234 4.8 9.7 0.00 0.79 0.33 75 1011.0
20260506174542 18 188 8.0 12.9 0.00 0.84 0.33 76 1010.8
20260506173040 18 195 9.7 19.3 0.00 0.84 0.33 73 1010.8
20260506171537 19 184 11.3 25.7 0.00 0.84 0.33 72 1010.7
20260506170053 20 183 11.3 33.8 0.00 0.84 0.33 63 1010.5
20260506164539 21 286 1.6 17.7 0.00 0.84 0.33 49 1010.6
20260506163057 21 306 3.2 17.7 0.00 0.84 0.33 45 1010.6
20260506161538 20 0 3.2 14.5 0.00 0.84 0.33 49 1010.6
20260506160040 20 269 3.2 16.1 0.00 0.84 0.33 55 1010.7
20260506154550 20 325 6.4 19.3 0.00 0.84 0.33 57 1010.8
20260506153049 20 272 11.3 29.0 0.00 0.84 0.33 54 1010.7
20260506151541 20 261 11.3 24.1 0.00 0.84 0.33 52 1010.7
20260506150041 20 288 14.5 29.0 0.00 0.84 0.33 53 1010.7
20260506144541 20 222 11.3 30.6 0.00 0.97 0.33 59 1010.6
20260506143047 20 294 12.9 38.6 0.00 0.97 0.33 61 1010.5
20260506141542 20 247 20.9 37.0 0.00 0.97 0.33 63 1010.8
20260506140039 20 292 14.5 30.6 0.00 0.97 0.33 68 1010.7
20260506134539 20 262 17.7 38.6 0.00 1.27 0.33 71 1010.9
20260506133037 20 274 16.1 27.4 0.00 1.27 0.33 72 1011.0
20260506131536 19 292 11.3 27.4 0.00 1.27 0.33 76 1011.0
20260506130035 18 260 20.9 33.8 0.00 1.27 0.33 75 1011.2